Time,TemperatureF,DewpointF,PressureIn,WindDirection,WindDirectionDegrees,WindSpeedMPH,WindSpeedGustMPH,Humidity,HourlyPrecipIn,Conditions,Clouds,dailyrainin,SoftwareType,DateUTC
2013-02-24 00:00:00,29.7,22.5,29.91,North,0,6.0,8.0,74,0.00,,,0.01,meteohub,2013-02-24 05:00:00,
2013-02-24 00:05:00,29.5,22.3,29.92,NW,315,8.0,8.0,74,0.00,,,0.00,meteohub,2013-02-24 05:05:00,
2013-02-24 00:10:00,29.5,22.3,29.92,SW,225,11.0,11.0,74,0.00,,,0.00,meteohub,2013-02-24 05:10:00,
2013-02-24 00:15:00,29.5,22.3,29.92,NW,315,5.0,11.0,74,0.00,,,0.00,meteohub,2013-02-24 05:15:00,
2013-02-24 00:20:00,29.5,22.5,29.92,NW,315,4.0,11.0,75,0.00,,,0.00,meteohub,2013-02-24 05:20:00,
2013-02-24 00:25:00,29.5,22.3,29.92,West,270,5.0,11.0,74,0.00,,,0.00,meteohub,2013-02-24 05:25:00,
2013-02-24 00:30:00,29.5,21.9,29.92,West,270,8.0,9.0,73,0.00,,,0.00,meteohub,2013-02-24 05:30:00,
2013-02-24 00:35:00,29.3,21.7,29.92,NW,315,5.0,9.0,73,0.00,,,0.00,meteohub,2013-02-24 05:35:00,
2013-02-24 00:40:00,29.3,21.4,29.92,NW,315,8.0,9.0,72,0.00,,,0.00,meteohub,2013-02-24 05:40:00,
2013-02-24 00:45:00,29.3,21.7,29.92,SW,225,5.0,9.0,73,0.00,,,0.00,meteohub,2013-02-24 05:45:00,
2013-02-24 00:50:00,29.1,21.6,29.93,West,270,11.0,11.0,73,0.00,,,0.00,meteohub,2013-02-24 05:50:00,
2013-02-24 00:55:00,29.3,21.4,29.93,SW,225,4.0,11.0,72,0.00,,,0.00,meteohub,2013-02-24 05:55:00,
2013-02-24 01:00:00,29.3,21.4,29.93,West,270,4.0,11.0,72,0.00,,,0.00,meteohub,2013-02-24 06:00:00,
2013-02-24 01:05:00,29.1,21.2,29.93,SW,225,4.0,11.0,72,0.00,,,0.00,meteohub,2013-02-24 06:05:00,
2013-02-24 01:10:00,29.1,20.8,29.93,West,270,7.0,8.0,71,0.00,,,0.00,meteohub,2013-02-24 06:10:00,
2013-02-24 01:15:00,29.1,20.8,29.93,West,270,5.0,8.0,71,0.00,,,0.00,meteohub,2013-02-24 06:15:00,
2013-02-24 01:20:00,28.9,20.7,29.93,West,270,4.0,8.0,71,0.00,,,0.00,meteohub,2013-02-24 06:20:00,
2013-02-24 01:25:00,28.9,21.0,29.94,South,180,2.0,7.0,72,0.00,,,0.00,meteohub,2013-02-24 06:25:00,
2013-02-24 01:30:00,28.9,21.0,29.94,West,270,3.0,6.0,72,0.00,,,0.00,meteohub,2013-02-24 06:30:00,
2013-02-24 01:35:00,28.9,21.0,29.94,West,270,6.0,6.0,72,0.00,,,0.00,meteohub,2013-02-24 06:35:00,
2013-02-24 01:40:00,28.8,20.8,29.94,West,270,6.0,8.0,72,0.00,,,0.00,meteohub,2013-02-24 06:40:00,
2013-02-24 01:45:00,28.8,20.8,29.94,NW,315,6.0,8.0,72,0.00,,,0.00,meteohub,2013-02-24 06:45:00,
2013-02-24 01:50:00,28.8,20.8,29.94,NW,315,3.0,8.0,72,0.00,,,0.00,meteohub,2013-02-24 06:50:00,
2013-02-24 01:55:00,28.8,20.8,29.94,SW,225,6.0,6.0,72,0.00,,,0.00,meteohub,2013-02-24 06:55:00,
2013-02-24 02:00:00,28.8,21.2,29.94,West,270,4.0,8.0,73,0.00,,,0.00,meteohub,2013-02-24 07:00:00,
2013-02-24 02:05:00,28.8,21.2,29.94,SW,225,4.0,8.0,73,0.00,,,0.00,meteohub,2013-02-24 07:05:00,
2013-02-24 02:10:00,28.8,20.8,29.94,WNW,293,7.0,8.0,72,0.00,,,0.00,meteohub,2013-02-24 07:10:00,
2013-02-24 02:15:00,28.8,20.8,29.94,SW,225,7.0,7.0,72,0.00,,,0.00,meteohub,2013-02-24 07:15:00,
2013-02-24 02:20:00,28.6,21.0,29.94,West,270,4.0,10.0,73,0.00,,,0.00,meteohub,2013-02-24 07:20:00,
2013-02-24 02:25:00,28.6,21.0,29.94,West,270,8.0,10.0,73,0.00,,,0.00,meteohub,2013-02-24 07:25:00,
2013-02-24 02:30:00,28.6,21.0,29.94,West,270,4.0,10.0,73,0.00,,,0.00,meteohub,2013-02-24 07:30:00,
2013-02-24 02:35:00,28.6,21.0,29.94,West,270,5.0,8.0,73,0.00,,,0.00,meteohub,2013-02-24 07:35:00,
2013-02-24 02:40:00,28.6,21.4,29.94,NW,315,3.0,8.0,74,0.00,,,0.00,meteohub,2013-02-24 07:40:00,
2013-02-24 02:45:00,28.6,21.4,29.95,West,270,6.0,8.0,74,0.00,,,0.00,meteohub,2013-02-24 07:45:00,
2013-02-24 02:50:00,28.6,21.4,29.95,West,270,5.0,8.0,74,0.00,,,0.00,meteohub,2013-02-24 07:50:00,
2013-02-24 02:55:00,28.6,21.4,29.95,West,270,5.0,8.0,74,0.00,,,0.00,meteohub,2013-02-24 07:55:00,
2013-02-24 03:00:00,28.6,21.7,29.95,West,270,5.0,8.0,75,0.00,,,0.00,meteohub,2013-02-24 08:00:00,
2013-02-24 03:05:00,28.4,21.2,29.95,West,270,4.0,8.0,74,0.00,,,0.00,meteohub,2013-02-24 08:05:00,
2013-02-24 03:10:00,28.6,21.0,29.95,NW,315,5.0,8.0,73,0.00,,,0.00,meteohub,2013-02-24 08:10:00,
2013-02-24 03:15:00,28.4,20.5,29.96,West,270,8.0,8.0,72,0.00,,,0.00,meteohub,2013-02-24 08:15:00,
2013-02-24 03:20:00,28.4,20.1,29.95,NW,315,5.0,8.0,71,0.00,,,0.00,meteohub,2013-02-24 08:20:00,
2013-02-24 03:25:00,28.4,20.1,29.96,NW,315,4.0,8.0,71,0.00,,,0.00,meteohub,2013-02-24 08:25:00,
2013-02-24 03:30:00,28.2,19.8,29.96,West,270,9.0,9.0,70,0.00,,,0.00,meteohub,2013-02-24 08:30:00,
2013-02-24 03:36:00,28.4,19.9,29.96,SW,225,7.0,9.0,70,0.00,,,0.00,meteohub,2013-02-24 08:36:00,
2013-02-24 03:41:00,28.2,19.8,29.96,West,270,5.0,9.0,70,0.00,,,0.00,meteohub,2013-02-24 08:41:00,
2013-02-24 03:46:00,28.2,20.1,29.96,West,270,6.0,9.0,71,0.00,,,0.00,meteohub,2013-02-24 08:46:00,
2013-02-24 03:51:00,28.0,19.9,29.96,South,180,6.0,9.0,71,0.00,,,0.00,meteohub,2013-02-24 08:51:00,
2013-02-24 03:56:00,28.0,19.9,29.96,West,270,4.0,9.0,71,0.00,,,0.00,meteohub,2013-02-24 08:56:00,
2013-02-24 04:01:00,28.0,19.9,29.96,NW,315,7.0,9.0,71,0.00,,,0.00,meteohub,2013-02-24 09:01:00,
2013-02-24 04:06:00,27.9,19.8,29.96,North,0,8.0,9.0,71,0.00,,,0.00,meteohub,2013-02-24 09:06:00,
2013-02-24 04:11:00,27.9,19.8,29.96,NW,315,5.0,8.0,71,0.00,,,0.00,meteohub,2013-02-24 09:11:00,
2013-02-24 04:16:00,27.7,19.6,29.95,West,270,8.0,8.0,71,0.00,,,0.00,meteohub,2013-02-24 09:16:00,
2013-02-24 04:21:00,27.5,19.4,29.96,NW,315,10.0,10.0,71,0.00,,,0.00,meteohub,2013-02-24 09:21:00,
2013-02-24 04:26:00,27.5,19.4,29.96,West,270,7.0,10.0,71,0.00,,,0.00,meteohub,2013-02-24 09:26:00,
2013-02-24 04:31:00,27.3,19.2,29.96,West,270,4.0,10.0,71,0.00,,,0.00,meteohub,2013-02-24 09:31:00,
2013-02-24 04:36:00,27.1,19.4,29.95,SW,225,8.0,10.0,72,0.00,,,0.00,meteohub,2013-02-24 09:36:00,
2013-02-24 04:41:00,27.1,19.4,29.95,SW,225,4.0,8.0,72,0.00,,,0.00,meteohub,2013-02-24 09:41:00,
2013-02-24 04:46:00,27.0,19.2,29.95,NW,315,5.0,8.0,72,0.00,,,0.00,meteohub,2013-02-24 09:46:00,
2013-02-24 04:51:00,27.0,19.4,29.96,SW,225,4.0,8.0,73,0.00,,,0.00,meteohub,2013-02-24 09:51:00,
2013-02-24 04:56:00,27.0,19.4,29.96,West,270,8.0,8.0,73,0.00,,,0.00,meteohub,2013-02-24 09:56:00,
2013-02-24 05:01:00,27.0,19.4,29.96,West,270,4.0,8.0,73,0.00,,,0.00,meteohub,2013-02-24 10:01:00,
2013-02-24 05:06:00,26.8,19.2,29.96,NW,315,4.0,8.0,73,0.00,,,0.00,meteohub,2013-02-24 10:06:00,
2013-02-24 05:11:00,26.8,19.6,29.96,NW,315,7.0,8.0,74,0.00,,,0.00,meteohub,2013-02-24 10:11:00,
2013-02-24 05:16:00,26.6,19.4,29.96,North,0,4.0,7.0,74,0.00,,,0.00,meteohub,2013-02-24 10:16:00,
2013-02-24 05:21:00,26.6,19.4,29.96,SW,225,3.0,7.0,74,0.00,,,0.00,meteohub,2013-02-24 10:21:00,
2013-02-24 05:26:00,26.6,19.4,29.97,SW,225,8.0,8.0,74,0.00,,,0.00,meteohub,2013-02-24 10:26:00,
2013-02-24 05:31:00,26.6,19.4,29.97,South,180,6.0,8.0,74,0.00,,,0.00,meteohub,2013-02-24 10:31:00,
2013-02-24 05:36:00,26.6,19.4,29.97,SW,225,4.0,8.0,74,0.00,,,0.00,meteohub,2013-02-24 10:36:00,
2013-02-24 05:41:00,26.6,19.4,29.98,NW,315,4.0,8.0,74,0.00,,,0.00,meteohub,2013-02-24 10:41:00,
2013-02-24 05:46:00,26.6,19.4,29.98,South,180,4.0,8.0,74,0.00,,,0.00,meteohub,2013-02-24 10:46:00,
2013-02-24 05:51:00,26.6,19.8,29.99,SW,225,8.0,8.0,75,0.00,,,0.00,meteohub,2013-02-24 10:51:00,
2013-02-24 05:56:00,26.6,19.8,29.99,West,270,4.0,11.0,75,0.00,,,0.00,meteohub,2013-02-24 10:56:00,
2013-02-24 06:01:00,26.4,19.6,29.99,South,180,5.0,11.0,75,0.00,,,0.00,meteohub,2013-02-24 11:01:00,
2013-02-24 06:06:00,26.4,19.6,29.99,West,270,8.0,11.0,75,0.00,,,0.00,meteohub,2013-02-24 11:06:00,
2013-02-24 06:11:00,26.2,19.8,29.99,SW,225,9.0,9.0,76,0.00,,,0.00,meteohub,2013-02-24 11:11:00,
2013-02-24 06:16:00,26.2,19.8,29.99,West,270,8.0,11.0,76,0.00,,,0.00,meteohub,2013-02-24 11:16:00,
2013-02-24 06:21:00,26.2,19.8,29.99,SW,225,4.0,11.0,76,0.00,,,0.00,meteohub,2013-02-24 11:21:00,
2013-02-24 06:26:00,26.2,19.8,29.99,West,270,8.0,11.0,76,0.00,,,0.00,meteohub,2013-02-24 11:26:00,
2013-02-24 06:31:00,26.1,19.6,29.99,West,270,4.0,9.0,76,0.00,,,0.00,meteohub,2013-02-24 11:31:00,
2013-02-24 06:36:00,26.1,19.6,29.99,SW,225,4.0,8.0,76,0.00,,,0.00,meteohub,2013-02-24 11:36:00,
2013-02-24 06:41:00,25.9,19.4,29.99,West,270,8.0,8.0,76,0.00,,,0.00,meteohub,2013-02-24 11:41:00,
2013-02-24 06:46:00,25.9,19.8,29.99,NW,315,8.0,11.0,77,0.00,,,0.00,meteohub,2013-02-24 11:46:00,
2013-02-24 06:51:00,25.7,19.6,30.00,South,180,5.0,11.0,77,0.00,,,0.00,meteohub,2013-02-24 11:51:00,
2013-02-24 06:56:00,25.5,19.6,30.00,SSE,158,4.0,9.0,78,0.00,,,0.00,meteohub,2013-02-24 11:56:00,
2013-02-24 07:01:00,25.5,19.6,29.99,West,270,8.0,9.0,78,0.00,,,0.00,meteohub,2013-02-24 12:01:00,
2013-02-24 07:06:00,25.5,19.6,30.00,South,180,5.0,9.0,78,0.00,,,0.00,meteohub,2013-02-24 12:06:00,
2013-02-24 07:11:00,25.5,19.6,29.99,SW,225,7.0,8.0,78,0.00,,,0.00,meteohub,2013-02-24 12:11:00,
2013-02-24 07:16:00,25.5,19.6,30.00,SW,225,7.0,9.0,78,0.00,,,0.00,meteohub,2013-02-24 12:16:00,
2013-02-24 07:21:00,25.5,19.9,30.00,SW,225,5.0,9.0,79,0.00,,,0.00,meteohub,2013-02-24 12:21:00,
2013-02-24 07:26:00,25.5,19.9,30.00,WNW,293,6.0,11.0,79,0.00,,,0.00,meteohub,2013-02-24 12:26:00,
2013-02-24 07:31:00,25.5,19.6,30.00,West,270,8.0,11.0,78,0.00,,,0.00,meteohub,2013-02-24 12:31:00,
2013-02-24 07:36:00,25.7,20.1,30.00,South,180,9.0,11.0,79,0.00,,,0.00,meteohub,2013-02-24 12:36:00,
2013-02-24 07:41:00,25.7,20.1,30.00,NW,315,4.0,11.0,79,0.00,,,0.00,meteohub,2013-02-24 12:41:00,
2013-02-24 07:46:00,25.9,20.3,30.00,South,180,4.0,9.0,79,0.00,,,0.00,meteohub,2013-02-24 12:46:00,
2013-02-24 07:51:00,25.9,20.3,30.01,SW,225,6.0,9.0,79,0.00,,,0.00,meteohub,2013-02-24 12:51:00,
2013-02-24 07:56:00,26.1,20.1,30.01,South,180,8.0,11.0,78,0.00,,,0.00,meteohub,2013-02-24 12:56:00,
2013-02-24 08:01:00,26.1,20.1,30.01,SW,225,4.0,11.0,78,0.00,,,0.00,meteohub,2013-02-24 13:01:00,
2013-02-24 08:06:00,26.2,20.3,30.01,South,180,6.0,11.0,78,0.00,,,0.00,meteohub,2013-02-24 13:06:00,
2013-02-24 08:11:00,26.2,20.3,30.01,NW,315,7.0,10.0,78,0.00,,,0.00,meteohub,2013-02-24 13:11:00,
2013-02-24 08:16:00,26.4,20.1,30.01,West,270,8.0,10.0,77,0.00,,,0.00,meteohub,2013-02-24 13:16:00,
2013-02-24 08:21:00,26.4,20.1,30.01,SW,225,9.0,10.0,77,0.00,,,0.00,meteohub,2013-02-24 13:21:00,
2013-02-24 08:26:00,26.6,20.1,30.01,NW,315,6.0,11.0,76,0.00,,,0.00,meteohub,2013-02-24 13:26:00,
2013-02-24 08:31:00,26.6,20.1,30.02,South,180,7.0,11.0,76,0.00,,,0.00,meteohub,2013-02-24 13:31:00,
2013-02-24 08:36:00,26.8,20.3,30.02,SW,225,11.0,11.0,76,0.00,,,0.00,meteohub,2013-02-24 13:36:00,
2013-02-24 08:41:00,26.8,20.3,30.01,West,270,4.0,11.0,76,0.00,,,0.00,meteohub,2013-02-24 13:41:00,
2013-02-24 08:46:00,26.8,20.3,30.01,WNW,293,8.0,11.0,76,0.00,,,0.00,meteohub,2013-02-24 13:46:00,
2013-02-24 08:51:00,27.0,20.5,30.02,SW,225,5.0,11.0,76,0.00,,,0.00,meteohub,2013-02-24 13:51:00,
2013-02-24 08:56:00,27.1,20.7,30.02,South,180,5.0,11.0,76,0.00,,,0.00,meteohub,2013-02-24 13:56:00,
2013-02-24 09:01:00,27.1,20.7,30.02,West,270,7.0,11.0,76,0.00,,,0.00,meteohub,2013-02-24 14:01:00,
2013-02-24 09:06:00,27.3,20.8,30.02,West,270,10.0,11.0,76,0.00,,,0.00,meteohub,2013-02-24 14:06:00,
2013-02-24 09:11:00,27.5,21.0,30.03,South,180,4.0,11.0,76,0.00,,,0.00,meteohub,2013-02-24 14:11:00,
2013-02-24 09:16:00,27.7,21.0,30.03,West,270,9.0,10.0,76,0.00,,,0.00,meteohub,2013-02-24 14:16:00,
2013-02-24 09:21:00,27.7,20.8,30.03,SW,225,6.0,10.0,75,0.00,,,0.00,meteohub,2013-02-24 14:21:00,
2013-02-24 09:26:00,27.9,21.0,30.03,NW,315,9.0,10.0,75,0.00,,,0.00,meteohub,2013-02-24 14:26:00,
2013-02-24 09:32:00,28.6,21.7,30.03,SW,225,3.0,10.0,75,0.00,,,0.00,meteohub,2013-02-24 14:32:00,
2013-02-24 09:37:00,29.1,22.3,30.03,West,270,9.0,10.0,75,0.00,,,0.00,meteohub,2013-02-24 14:37:00,
2013-02-24 09:42:00,29.5,22.3,30.03,West,270,8.0,9.0,74,0.00,,,0.00,meteohub,2013-02-24 14:42:00,
2013-02-24 09:47:00,29.7,22.5,30.03,West,270,8.0,13.0,74,0.00,,,0.00,meteohub,2013-02-24 14:47:00,
2013-02-24 09:52:00,29.7,22.5,30.03,NW,315,6.0,13.0,74,0.00,,,0.00,meteohub,2013-02-24 14:52:00,
2013-02-24 09:57:00,29.7,22.6,30.03,SW,225,7.0,13.0,75,0.00,,,0.00,meteohub,2013-02-24 14:57:00,
2013-02-24 10:02:00,29.5,22.5,30.03,West,270,11.0,11.0,75,0.00,,,0.00,meteohub,2013-02-24 15:02:00,
2013-02-24 10:07:00,29.5,22.5,30.02,SE,135,7.0,12.0,75,0.00,,,0.00,meteohub,2013-02-24 15:07:00,
2013-02-24 10:12:00,30.2,23.2,30.02,SW,225,6.0,12.0,75,0.00,,,0.00,meteohub,2013-02-24 15:12:00,
2013-02-24 10:17:00,30.2,22.6,30.02,West,270,7.0,12.0,73,0.00,,,0.00,meteohub,2013-02-24 15:17:00,
2013-02-24 10:22:00,31.1,23.7,30.02,SW,225,10.0,11.0,74,0.00,,,0.00,meteohub,2013-02-24 15:22:00,
2013-02-24 10:27:00,31.8,23.9,30.02,West,270,10.0,14.0,72,0.00,,,0.00,meteohub,2013-02-24 15:27:00,
2013-02-24 10:32:00,31.8,23.5,30.03,SW,225,4.0,14.0,71,0.00,,,0.00,meteohub,2013-02-24 15:32:00,
2013-02-24 10:37:00,31.5,23.2,30.03,NW,315,8.0,14.0,71,0.00,,,0.00,meteohub,2013-02-24 15:37:00,
2013-02-24 10:42:00,31.8,23.9,30.03,SE,135,10.0,12.0,72,0.00,,,0.00,meteohub,2013-02-24 15:42:00,
2013-02-24 10:47:00,32.2,23.5,30.03,West,270,7.0,15.0,70,0.00,,,0.00,meteohub,2013-02-24 15:47:00,
2013-02-24 10:52:00,32.4,23.7,30.04,West,270,6.0,15.0,70,0.00,,,0.00,meteohub,2013-02-24 15:52:00,
2013-02-24 10:57:00,32.4,23.4,30.04,West,270,8.0,15.0,69,0.00,,,0.00,meteohub,2013-02-24 15:57:00,
2013-02-24 11:02:00,32.7,23.7,30.04,NW,315,8.0,11.0,69,0.00,,,0.00,meteohub,2013-02-24 16:02:00,
2013-02-24 11:07:00,32.9,23.9,30.04,South,180,8.0,11.0,69,0.00,,,0.00,meteohub,2013-02-24 16:07:00,
2013-02-24 11:12:00,33.1,23.7,30.04,NW,315,5.0,11.0,68,0.00,,,0.00,meteohub,2013-02-24 16:12:00,
2013-02-24 11:17:00,33.3,23.5,30.04,West,270,9.0,11.0,67,0.00,,,0.00,meteohub,2013-02-24 16:17:00,
2013-02-24 11:22:00,33.6,23.5,30.04,NW,315,8.0,11.0,66,0.00,,,0.00,meteohub,2013-02-24 16:22:00,
2013-02-24 11:27:00,33.4,23.4,30.05,NW,315,12.0,12.0,66,0.00,,,0.00,meteohub,2013-02-24 16:27:00,
2013-02-24 11:32:00,32.7,23.0,30.04,SW,225,11.0,12.0,67,0.00,,,0.00,meteohub,2013-02-24 16:32:00,
2013-02-24 11:37:00,32.9,23.2,30.04,NW,315,8.0,12.0,67,0.00,,,0.00,meteohub,2013-02-24 16:37:00,
2013-02-24 11:42:00,34.0,24.3,30.04,West,270,11.0,12.0,67,0.00,,,0.00,meteohub,2013-02-24 16:42:00,
2013-02-24 11:47:00,34.3,23.7,30.05,SW,225,9.0,11.0,65,0.00,,,0.00,meteohub,2013-02-24 16:47:00,
2013-02-24 11:52:00,34.7,23.7,30.05,West,270,8.0,11.0,64,0.00,,,0.00,meteohub,2013-02-24 16:52:00,
2013-02-24 11:57:00,35.2,23.9,30.04,NW,315,8.0,11.0,63,0.00,,,0.00,meteohub,2013-02-24 16:57:00,
2013-02-24 12:02:00,35.2,23.5,30.05,West,270,8.0,10.0,62,0.00,,,0.00,meteohub,2013-02-24 17:02:00,
2013-02-24 12:07:00,35.1,23.7,30.05,SW,225,7.0,14.0,63,0.00,,,0.00,meteohub,2013-02-24 17:07:00,
2013-02-24 12:12:00,35.4,23.7,30.05,NW,315,8.0,14.0,62,0.00,,,0.00,meteohub,2013-02-24 17:12:00,
2013-02-24 12:17:00,34.9,23.2,30.05,NW,315,13.0,14.0,62,0.00,,,0.00,meteohub,2013-02-24 17:17:00,
2013-02-24 12:22:00,34.5,23.5,30.05,West,270,6.0,13.0,64,0.00,,,0.00,meteohub,2013-02-24 17:22:00,
2013-02-24 12:27:00,35.2,23.9,30.05,West,270,10.0,13.0,63,0.00,,,0.00,meteohub,2013-02-24 17:27:00,
2013-02-24 12:32:00,35.4,23.7,30.05,West,270,15.0,15.0,62,0.00,,,0.00,meteohub,2013-02-24 17:32:00,
2013-02-24 12:37:00,34.7,23.4,30.05,West,270,10.0,15.0,63,0.00,,,0.00,meteohub,2013-02-24 17:37:00,
2013-02-24 12:42:00,34.9,23.9,30.05,NW,315,10.0,15.0,64,0.00,,,0.00,meteohub,2013-02-24 17:42:00,
2013-02-24 12:47:00,35.6,24.6,30.05,North,0,6.0,15.0,64,0.00,,,0.00,meteohub,2013-02-24 17:47:00,
2013-02-24 12:52:00,35.6,23.9,30.05,NW,315,10.0,20.0,62,0.00,,,0.00,meteohub,2013-02-24 17:52:00,
2013-02-24 12:57:00,35.1,23.7,30.05,NW,315,8.0,20.0,63,0.00,,,0.00,meteohub,2013-02-24 17:57:00,
2013-02-24 13:02:00,35.8,24.4,30.04,South,180,8.0,20.0,63,0.00,,,0.00,meteohub,2013-02-24 18:02:00,
2013-02-24 13:07:00,35.6,23.9,30.05,North,0,7.0,15.0,62,0.00,,,0.00,meteohub,2013-02-24 18:07:00,
2013-02-24 13:12:00,35.6,24.3,30.05,SW,225,14.0,15.0,63,0.00,,,0.00,meteohub,2013-02-24 18:12:00,
2013-02-24 13:17:00,35.8,24.4,30.05,NW,315,8.0,15.0,63,0.00,,,0.00,meteohub,2013-02-24 18:17:00,
2013-02-24 13:22:00,35.6,24.3,30.05,West,270,11.0,14.0,63,0.00,,,0.00,meteohub,2013-02-24 18:22:00,
2013-02-24 13:27:00,35.6,24.3,30.05,NW,315,11.0,14.0,63,0.00,,,0.00,meteohub,2013-02-24 18:27:00,
2013-02-24 13:32:00,35.8,24.4,30.05,NW,315,8.0,11.0,63,0.00,,,0.00,meteohub,2013-02-24 18:32:00,
2013-02-24 13:37:00,35.6,24.6,30.05,West,270,8.0,11.0,64,0.00,,,0.00,meteohub,2013-02-24 18:37:00,
2013-02-24 13:41:00,35.6,24.3,30.06,NW,315,12.0,12.0,63,0.00,,,0.00,meteohub,2013-02-24 18:41:00,
2013-02-24 13:46:00,35.4,24.1,30.05,North,0,10.0,13.0,63,0.00,,,0.00,meteohub,2013-02-24 18:46:00,
2013-02-24 13:52:00,35.6,24.6,30.05,SW,225,8.0,13.0,64,0.00,,,0.00,meteohub,2013-02-24 18:52:00,
2013-02-24 13:56:00,35.4,24.4,30.05,NW,315,8.0,13.0,64,0.00,,,0.00,meteohub,2013-02-24 18:56:00,
2013-02-24 14:01:00,35.2,24.3,30.05,West,270,8.0,11.0,64,0.00,,,0.00,meteohub,2013-02-24 19:01:00,
2013-02-24 14:06:00,35.2,24.3,30.06,SW,225,11.0,11.0,64,0.00,,,0.00,meteohub,2013-02-24 19:06:00,
2013-02-24 14:11:00,35.2,24.6,30.06,NW,315,9.0,11.0,65,0.00,,,0.00,meteohub,2013-02-24 19:11:00,
2013-02-24 14:17:00,35.2,24.6,30.06,NW,315,8.0,11.0,65,0.00,,,0.00,meteohub,2013-02-24 19:17:00,
2013-02-24 14:22:00,35.8,25.5,30.06,West,270,7.0,11.0,66,0.00,,,0.00,meteohub,2013-02-24 19:22:00,
2013-02-24 14:27:00,36.5,25.9,30.05,West,270,7.0,11.0,65,0.00,,,0.00,meteohub,2013-02-24 19:27:00,
2013-02-24 14:32:00,36.5,25.2,30.06,SW,225,7.0,11.0,63,0.00,,,0.00,meteohub,2013-02-24 19:32:00,
2013-02-24 14:37:00,36.7,25.7,30.06,SW,225,5.0,9.0,64,0.00,,,0.00,meteohub,2013-02-24 19:37:00,
2013-02-24 14:42:00,36.9,25.5,30.06,SW,225,6.0,9.0,63,0.00,,,0.00,meteohub,2013-02-24 19:42:00,
2013-02-24 14:47:00,36.5,25.2,30.07,NW,315,8.0,9.0,63,0.00,,,0.00,meteohub,2013-02-24 19:47:00,
2013-02-24 14:52:00,36.1,25.2,30.06,NW,315,12.0,12.0,64,0.00,,,0.00,meteohub,2013-02-24 19:52:00,
2013-02-24 14:57:00,36.0,25.3,30.07,SW,225,8.0,12.0,65,0.00,,,0.00,meteohub,2013-02-24 19:57:00,
2013-02-24 15:02:00,36.1,25.9,30.06,NW,315,5.0,12.0,66,0.00,,,0.00,meteohub,2013-02-24 20:02:00,
2013-02-24 15:07:00,36.5,25.9,30.06,NW,315,4.0,12.0,65,0.00,,,0.00,meteohub,2013-02-24 20:07:00,
2013-02-24 15:12:00,36.3,25.7,30.06,West,270,8.0,11.0,65,0.00,,,0.00,meteohub,2013-02-24 20:12:00,
2013-02-24 15:17:00,36.0,25.3,30.06,NW,315,6.0,9.0,65,0.00,,,0.00,meteohub,2013-02-24 20:17:00,
2013-02-24 15:22:00,35.6,25.3,30.07,West,270,8.0,11.0,66,0.00,,,0.00,meteohub,2013-02-24 20:22:00,
2013-02-24 15:27:00,35.6,25.7,30.07,NW,315,7.0,11.0,67,0.00,,,0.00,meteohub,2013-02-24 20:27:00,
2013-02-24 15:32:00,35.6,25.3,30.07,West,270,8.0,13.0,66,0.00,,,0.00,meteohub,2013-02-24 20:32:00,
2013-02-24 15:37:00,35.8,25.9,30.07,West,270,4.0,13.0,67,0.00,,,0.00,meteohub,2013-02-24 20:37:00,
2013-02-24 15:42:00,35.6,25.7,30.07,NW,315,4.0,13.0,67,0.00,,,0.00,meteohub,2013-02-24 20:42:00,
2013-02-24 15:47:00,35.4,25.5,30.07,NW,315,4.0,10.0,67,0.00,,,0.00,meteohub,2013-02-24 20:47:00,
2013-02-24 15:52:00,35.2,25.3,30.07,NW,315,4.0,8.0,67,0.00,,,0.00,meteohub,2013-02-24 20:52:00,
2013-02-24 15:57:00,35.2,25.3,30.07,NW,315,6.0,8.0,67,0.00,,,0.00,meteohub,2013-02-24 20:57:00,
2013-02-24 16:02:00,35.2,25.3,30.08,NW,315,4.0,8.0,67,0.00,,,0.00,meteohub,2013-02-24 21:02:00,
2013-02-24 16:07:00,35.8,25.9,30.08,West,270,7.0,8.0,67,0.00,,,0.00,meteohub,2013-02-24 21:07:00,
2013-02-24 16:12:00,36.0,25.3,30.08,West,270,8.0,8.0,65,0.00,,,0.00,meteohub,2013-02-24 21:12:00,
2013-02-24 16:17:00,36.1,25.5,30.08,West,270,4.0,8.0,65,0.00,,,0.00,meteohub,2013-02-24 21:17:00,
2013-02-24 16:22:00,36.1,25.2,30.08,NW,315,6.0,8.0,64,0.00,,,0.00,meteohub,2013-02-24 21:22:00,
2013-02-24 16:27:00,37.2,26.2,30.08,NW,315,4.0,8.0,64,0.00,,,0.00,meteohub,2013-02-24 21:27:00,
2013-02-24 16:32:00,38.1,26.2,30.08,NW,315,5.0,8.0,62,0.00,,,0.00,meteohub,2013-02-24 21:32:00,
2013-02-24 16:37:00,38.7,26.1,30.08,NW,315,5.0,6.0,60,0.00,,,0.00,meteohub,2013-02-24 21:37:00,
2013-02-24 16:42:00,38.7,25.2,30.09,WNW,293,7.0,9.0,58,0.00,,,0.00,meteohub,2013-02-24 21:42:00,
2013-02-24 16:47:00,38.5,25.3,30.09,West,270,5.0,11.0,59,0.00,,,0.00,meteohub,2013-02-24 21:47:00,
2013-02-24 16:52:00,38.3,25.2,30.09,NW,315,7.0,11.0,59,0.00,,,0.00,meteohub,2013-02-24 21:52:00,
2013-02-24 16:57:00,38.1,25.0,30.09,West,270,8.0,11.0,59,0.00,,,0.00,meteohub,2013-02-24 21:57:00,
2013-02-24 17:02:00,37.9,25.0,30.09,West,270,8.0,11.0,59,0.00,,,0.00,meteohub,2013-02-24 22:02:00,
2013-02-24 17:07:00,37.4,24.8,30.09,West,270,8.0,11.0,60,0.00,,,0.00,meteohub,2013-02-24 22:07:00,
2013-02-24 17:12:00,36.7,25.0,30.09,West,270,6.0,9.0,62,0.00,,,0.00,meteohub,2013-02-24 22:12:00,
2013-02-24 17:17:00,36.7,25.0,30.09,West,270,5.0,9.0,62,0.00,,,0.00,meteohub,2013-02-24 22:17:00,
2013-02-24 17:22:00,36.1,24.8,30.10,West,270,9.0,9.0,63,0.00,,,0.00,meteohub,2013-02-24 22:22:00,
2013-02-24 17:27:00,36.1,25.2,30.10,West,270,8.0,9.0,64,0.00,,,0.00,meteohub,2013-02-24 22:27:00,
2013-02-24 17:32:00,36.1,24.8,30.10,SW,225,5.0,9.0,63,0.00,,,0.00,meteohub,2013-02-24 22:32:00,
2013-02-24 17:37:00,36.0,25.0,30.10,West,270,3.0,11.0,64,0.00,,,0.00,meteohub,2013-02-24 22:37:00,
2013-02-24 17:42:00,36.0,25.0,30.10,NW,315,2.0,11.0,64,0.00,,,0.00,meteohub,2013-02-24 22:42:00,
2013-02-24 17:47:00,35.6,24.6,30.10,NW,315,6.0,8.0,64,0.00,,,0.00,meteohub,2013-02-24 22:47:00,
2013-02-24 17:52:00,35.4,24.4,30.11,West,270,4.0,8.0,64,0.00,,,0.00,meteohub,2013-02-24 22:52:00,
2013-02-24 17:57:00,35.2,24.6,30.11,West,270,6.0,8.0,65,0.00,,,0.00,meteohub,2013-02-24 22:57:00,
2013-02-24 18:02:00,35.2,24.6,30.11,West,270,4.0,8.0,65,0.00,,,0.00,meteohub,2013-02-24 23:02:00,
2013-02-24 18:07:00,34.9,24.3,30.11,North,0,4.0,8.0,65,0.00,,,0.00,meteohub,2013-02-24 23:07:00,
2013-02-24 18:12:00,34.9,24.6,30.11,SW,225,3.0,8.0,66,0.00,,,0.00,meteohub,2013-02-24 23:12:00,
2013-02-24 18:17:00,34.7,24.4,30.11,West,270,3.0,8.0,66,0.00,,,0.00,meteohub,2013-02-24 23:17:00,
2013-02-24 18:22:00,34.7,24.4,30.12,South,180,2.0,7.0,66,0.00,,,0.00,meteohub,2013-02-24 23:22:00,
2013-02-24 18:27:00,34.7,24.4,30.12,West,270,5.0,7.0,66,0.00,,,0.00,meteohub,2013-02-24 23:27:00,
2013-02-24 18:32:00,34.5,24.3,30.12,SW,225,3.0,7.0,66,0.00,,,0.00,meteohub,2013-02-24 23:32:00,
2013-02-24 18:37:00,34.5,24.6,30.12,NE,45,2.0,7.0,67,0.00,,,0.00,meteohub,2013-02-24 23:37:00,
2013-02-24 18:42:00,34.5,24.6,30.12,North,0,3.0,6.0,67,0.00,,,0.00,meteohub,2013-02-24 23:42:00,
2013-02-24 18:47:00,34.3,24.4,30.12,West,270,3.0,6.0,67,0.00,,,0.00,meteohub,2013-02-24 23:47:00,
2013-02-24 18:52:00,34.3,24.8,30.12,South,180,4.0,5.0,68,0.00,,,0.00,meteohub,2013-02-24 23:52:00,
2013-02-24 18:57:00,34.3,24.8,30.12,SW,225,4.0,4.0,68,0.00,,,0.00,meteohub,2013-02-24 23:57:00,
2013-02-24 19:02:00,34.3,24.8,30.13,SW,225,3.0,4.0,68,0.00,,,0.00,meteohub,2013-02-25 00:02:00,
2013-02-24 19:07:00,34.3,24.8,30.13,NW,315,3.0,4.0,68,0.00,,,0.00,meteohub,2013-02-25 00:07:00,
2013-02-24 19:12:00,34.2,25.0,30.14,West,270,2.0,4.0,69,0.00,,,0.00,meteohub,2013-02-25 00:12:00,
2013-02-24 19:17:00,34.2,25.0,30.13,SW,225,1.0,4.0,69,0.00,,,0.00,meteohub,2013-02-25 00:17:00,
2013-02-24 19:22:00,34.2,25.0,30.13,North,0,0.0,4.0,69,0.00,,,0.00,meteohub,2013-02-25 00:22:00,
2013-02-24 19:27:00,34.0,24.8,30.13,West,270,3.0,4.0,69,0.00,,,0.00,meteohub,2013-02-25 00:27:00,
2013-02-24 19:32:00,34.0,25.2,30.14,SW,225,4.0,4.0,70,0.00,,,0.00,meteohub,2013-02-25 00:32:00,
2013-02-24 19:37:00,34.0,25.2,30.14,East,90,2.0,4.0,70,0.00,,,0.00,meteohub,2013-02-25 00:37:00,
2013-02-24 19:42:00,34.0,25.2,30.14,SW,225,2.0,4.0,70,0.00,,,0.00,meteohub,2013-02-25 00:42:00,
2013-02-24 19:47:00,34.0,25.5,30.14,SW,225,4.0,4.0,71,0.00,,,0.00,meteohub,2013-02-25 00:47:00,
2013-02-24 19:52:00,34.0,25.5,30.14,NW,315,3.0,4.0,71,0.00,,,0.00,meteohub,2013-02-25 00:52:00,
2013-02-24 19:57:00,34.0,25.5,30.14,West,270,2.0,4.0,71,0.00,,,0.00,meteohub,2013-02-25 00:57:00,
2013-02-24 20:02:00,34.0,25.5,30.14,SW,225,3.0,4.0,71,0.00,,,0.00,meteohub,2013-02-25 01:02:00,
2013-02-24 20:07:00,33.8,25.7,30.14,West,270,2.0,4.0,72,0.00,,,0.00,meteohub,2013-02-25 01:07:00,
2013-02-24 20:12:00,33.8,25.7,30.14,West,270,2.0,3.0,72,0.00,,,0.00,meteohub,2013-02-25 01:12:00,
2013-02-24 20:17:00,33.8,25.7,30.14,SW,225,3.0,3.0,72,0.00,,,0.00,meteohub,2013-02-25 01:17:00,
2013-02-24 20:22:00,33.6,25.5,30.14,West,270,1.0,3.0,72,0.00,,,0.00,meteohub,2013-02-25 01:22:00,
2013-02-24 20:27:00,33.6,25.9,30.14,West,270,2.0,3.0,73,0.00,,,0.00,meteohub,2013-02-25 01:27:00,
2013-02-24 20:32:00,33.6,25.9,30.15,West,270,1.0,3.0,73,0.00,,,0.00,meteohub,2013-02-25 01:32:00,
2013-02-24 20:37:00,33.4,25.7,30.15,West,270,2.0,2.0,73,0.00,,,0.00,meteohub,2013-02-25 01:37:00,
2013-02-24 20:42:00,33.4,26.1,30.15,West,270,2.0,5.0,74,0.00,,,0.00,meteohub,2013-02-25 01:42:00,
2013-02-24 20:47:00,33.4,26.1,30.15,SW,225,2.0,5.0,74,0.00,,,0.00,meteohub,2013-02-25 01:47:00,
2013-02-24 20:52:00,33.4,26.1,30.15,NW,315,2.0,5.0,74,0.00,,,0.00,meteohub,2013-02-25 01:52:00,
2013-02-24 20:57:00,33.4,26.1,30.15,West,270,4.0,4.0,74,0.00,,,0.00,meteohub,2013-02-25 01:57:00,
2013-02-24 21:02:00,33.3,25.9,30.14,West,270,2.0,4.0,74,0.00,,,0.00,meteohub,2013-02-25 02:02:00,
2013-02-24 21:07:00,33.3,26.2,30.15,West,270,2.0,4.0,75,0.00,,,0.00,meteohub,2013-02-25 02:07:00,
2013-02-24 21:12:00,33.1,26.1,30.15,NW,315,2.0,4.0,75,0.00,,,0.00,meteohub,2013-02-25 02:12:00,
2013-02-24 21:17:00,33.1,26.1,30.14,SW,225,2.0,4.0,75,0.00,,,0.00,meteohub,2013-02-25 02:17:00,
2013-02-24 21:22:00,33.1,26.4,30.14,SW,225,3.0,4.0,76,0.00,,,0.00,meteohub,2013-02-25 02:22:00,
2013-02-24 21:27:00,33.1,26.4,30.15,West,270,4.0,4.0,76,0.00,,,0.00,meteohub,2013-02-25 02:27:00,
2013-02-24 21:32:00,32.9,26.2,30.15,South,180,2.0,4.0,76,0.00,,,0.00,meteohub,2013-02-25 02:32:00,
2013-02-24 21:37:00,32.9,26.2,30.14,NW,315,3.0,4.0,76,0.00,,,0.00,meteohub,2013-02-25 02:37:00,
2013-02-24 21:42:00,32.9,26.2,30.14,West,270,2.0,4.0,76,0.00,,,0.00,meteohub,2013-02-25 02:42:00,
2013-02-24 21:47:00,32.9,26.4,30.14,West,270,2.0,4.0,77,0.00,,,0.00,meteohub,2013-02-25 02:47:00,
2013-02-24 21:52:00,32.7,26.2,30.15,West,270,2.0,4.0,77,0.00,,,0.00,meteohub,2013-02-25 02:52:00,
2013-02-24 21:57:00,32.7,26.2,30.15,SW,225,2.0,4.0,77,0.00,,,0.00,meteohub,2013-02-25 02:57:00,
2013-02-24 22:02:00,32.5,26.1,30.15,SW,225,3.0,4.0,77,0.00,,,0.00,meteohub,2013-02-25 03:02:00,
2013-02-24 22:07:00,32.4,25.9,30.15,SW,225,2.0,4.0,77,0.00,,,0.00,meteohub,2013-02-25 03:07:00,
2013-02-24 22:12:00,32.4,26.2,30.15,SW,225,2.0,3.0,78,0.00,,,0.00,meteohub,2013-02-25 03:12:00,
2013-02-24 22:17:00,32.0,25.9,30.16,SW,225,2.0,3.0,78,0.00,,,0.00,meteohub,2013-02-25 03:17:00,
2013-02-24 22:22:00,32.0,25.9,30.15,NW,315,2.0,3.0,78,0.00,,,0.00,meteohub,2013-02-25 03:22:00,
2013-02-24 22:27:00,31.6,25.5,30.15,West,270,2.0,3.0,78,0.00,,,0.00,meteohub,2013-02-25 03:27:00,
2013-02-24 22:32:00,31.6,25.9,30.16,West,270,2.0,4.0,79,0.00,,,0.00,meteohub,2013-02-25 03:32:00,
2013-02-24 22:37:00,31.5,25.7,30.15,West,270,2.0,4.0,79,0.00,,,0.00,meteohub,2013-02-25 03:37:00,
2013-02-24 22:42:00,31.1,25.3,30.15,North,0,2.0,2.0,79,0.00,,,0.00,meteohub,2013-02-25 03:42:00,
2013-02-24 22:47:00,30.9,25.2,30.15,SW,225,2.0,2.0,79,0.00,,,0.00,meteohub,2013-02-25 03:47:00,
2013-02-24 22:52:00,30.9,25.2,30.15,West,270,2.0,2.0,79,0.00,,,0.00,meteohub,2013-02-25 03:52:00,
2013-02-24 22:57:00,30.7,25.3,30.15,SW,225,2.0,2.0,80,0.00,,,0.00,meteohub,2013-02-25 03:57:00,
2013-02-24 23:02:00,30.6,25.2,30.15,SW,225,2.0,2.0,80,0.00,,,0.00,meteohub,2013-02-25 04:02:00,
2013-02-24 23:07:00,30.6,25.2,30.15,SW,225,2.0,2.0,80,0.00,,,0.00,meteohub,2013-02-25 04:07:00,
2013-02-24 23:12:00,30.6,25.3,30.15,West,270,2.0,2.0,81,0.00,,,0.00,meteohub,2013-02-25 04:12:00,
2013-02-24 23:17:00,30.4,25.3,30.15,SW,225,2.0,3.0,81,0.00,,,0.00,meteohub,2013-02-25 04:17:00,
2013-02-24 23:22:00,30.2,25.2,30.15,West,270,2.0,3.0,81,0.00,,,0.00,meteohub,2013-02-25 04:22:00,
2013-02-24 23:27:00,30.2,25.2,30.15,West,270,2.0,3.0,81,0.00,,,0.00,meteohub,2013-02-25 04:27:00,
2013-02-24 23:32:00,30.2,25.2,30.15,West,270,2.0,2.0,81,0.00,,,0.00,meteohub,2013-02-25 04:32:00,
2013-02-24 23:37:00,30.0,25.0,30.15,West,270,0.0,2.0,81,0.00,,,0.00,meteohub,2013-02-25 04:37:00,
2013-02-24 23:42:00,29.8,24.8,30.15,West,270,2.0,2.0,81,0.00,,,0.00,meteohub,2013-02-25 04:42:00,
2013-02-24 23:47:00,29.7,24.8,30.15,West,270,2.0,2.0,82,0.00,,,0.00,meteohub,2013-02-25 04:47:00,
2013-02-24 23:52:00,29.7,24.8,30.15,West,270,0.0,2.0,82,0.00,,,0.00,meteohub,2013-02-25 04:52:00,
2013-02-24 23:57:00,29.5,24.6,30.15,SW,225,1.0,2.0,82,0.00,,,0.00,meteohub,2013-02-25 04:57:00,